الصفحة الرئيسية
METAR-TAF:

METAR-TAF

مطار :

Hallock Municipal Airport

Hallock, مينيسوتا, الولايات المتحدة

دائرة عرض: 48-45-10N, خط طول: 096-56-35W, ارتفاع: 250 متر

مراقبة الطقس الحالي

تاريخ ووقت الإصدار 10 دقيقة قبل الساعة 17:35UTC
ريح 5 عقدة من الشرق
درجة الحرارة -17°درجة مئوية
الرطوبة 92%
ضغط 1021 hPa
الرؤية: 16.1 كم
سماء صافية

METAR: KHCO 161735Z AUTO 08005KT 10SM CLR M17/M18 A3014 RMK AO2

زمن: 11:45 (17:45 UTC)


TAF: مفقودة

أرصاد الطقس والتوقعات من أكثر من 4000 مطار (تقارير الطقس للمطار METAR والتنبؤ بالطقس بالمطارTAF).

المحطات المتاحة هي النقط الصفراء والحمراء على الخريطة.

حرك المؤشر فوق النقطة لمعرفة اسم المحطة.

ثم انقر لمعرفة أرصاد وتوقعات الطقس.

لتغيير الخارطة: اضغط على الأزرار الخضراء مع رمز الصليب الأسود للتكبير. على الزر الأخضر مع شرطة للتصغير، أو على الأسهم الخضراء للخرائط المجاورة.


METAR-TAF: